Flag for Canada Weather past 2 weeks in Selkirk, Manitoba, Canada

Now
11 °F

Cold.


Feels Like: 3 °F
Forecast: -4 / 24 °F
Wind: 5 mph from Southwest

Location: Winnipeg The Forks

Current Time: Mar 2, 2015 at 1:55:47 AM

Latest Report: Mar 2, 2015 at 1:00 AM


Visibility: N/A

Pressure: 30.37 "Hg

Humidity: 65%

Dew point: 2 °F

Location of SelkirkLocation

Historic Weather in Selkirk — Graph

°F

Selkirk temperature yesterday

Maximum temperature yesterday: 21 °F (at 5:00 PM)
Minimum temperature yesterday: 2 °F (at 5:00 AM)
Average temperature yesterday: 11 °F

Past Weeks' High & Low Weather Summary

 TemperatureHumidityPressure
High27 °F (Feb 23, 10:00 PM)91% (Feb 24, 12:00 AM)30.83 "Hg (Feb 24, 12:00 AM)
Low-21 °F (Feb 22, 8:00 AM)46% (Feb 22, 5:00 PM)29.67 "Hg (Feb 23, 11:00 PM)
Average1 °F67%30.27 "Hg
* Reported Midnight between Feb 14 and Feb 15 — Midnight between Mar 1 and Mar 2, Selkirk, Weather by CustomWeather, © 2015

Note: Actual official high and low records may vary slightly from our data, if they occured in-between our weather recording intervals... More about our weather records

Advertising

Selkirk weather history for previous 24 hours

 ConditionsComfort  
Time TempWeatherWind HumidityBarometerVisibility
12:00 AM
Mon, Mar 2
13 °FCold.3 mph66%30.36 "HgN/A
11:00 PM
Sun, Mar 1
13 °FCold.1 mph66%30.34 "HgN/A
10:00 PM17 °FCold.2 mph54%30.34 "HgN/A
9:00 PM16 °FCold.3 mph59%30.32 "HgN/A
8:00 PM17 °FCold.2 mph65%30.30 "HgN/A
7:00 PM18 °FCold.2 mph63%30.28 "HgN/A
6:00 PM21 °FCold.6 mph54%30.26 "HgN/A
5:00 PM21 °FCold.7 mph56%30.25 "HgN/A
4:00 PM21 °FCold.6 mph59%30.25 "HgN/A
3:00 PM20 °FCold.5 mph61%30.24 "HgN/A
2:00 PM17 °FCold.5 mph60%30.24 "HgN/A
1:00 PM15 °FCold.5 mph67%30.24 "HgN/A
12:00 PM13 °FCold.3 mph72%30.24 "HgN/A
11:00 AM11 °FCold.5 mph75%30.22 "HgN/A
10:00 AM8 °FFrigid.5 mph78%30.20 "HgN/A
9:00 AM8 °FFrigid.3 mph78%30.18 "HgN/A
8:00 AM4 °FFrigid.3 mph77%30.16 "HgN/A
7:00 AM4 °FFrigid.3 mph75%30.14 "HgN/A
6:00 AM4 °FFrigid.5 mph75%30.13 "HgN/A
5:00 AM2 °FFrigid.3 mph79%30.12 "HgN/A
4:00 AM2 °FFrigid.3 mph77%30.12 "HgN/A
3:00 AM2 °FFrigid.3 mph76%30.12 "HgN/A
2:00 AM4 °FFrigid.5 mph76%30.12 "HgN/A
1:00 AM3 °FFrigid.5 mph75%30.11 "HgN/A
Weather by CustomWeather, © 2015

See weather overviewHow to use our weather pages